| time (UTC) | temp C | wind direction | speed KPH | gust KPH | rain 1hr cm | rain 24hr cm | rain mn cm | humidity % | barometer mb |
| 20260504081529 | 17 | 189 | 0.0 | 0.0 | 0.00 | 0.00 | 0.00 | 68 | 1014.3 |
| 20260504081025 | 17 | 198 | 0.0 | 0.0 | 0.00 | 0.00 | 0.00 | 68 | 1014.4 |
| 20260504080522 | 17 | 172 | 0.0 | 0.0 | 0.00 | 0.00 | 0.00 | 68 | 1014.6 |
| 20260504050335 | 18 | 194 | 0.0 | 0.0 | 0.00 | 0.00 | 0.00 | 64 | 1016.3 |
| 20260504045832 | 18 | 181 | 0.0 | 0.0 | 0.00 | 0.00 | 0.00 | 64 | 1016.4 |
| 20260504045326 | 18 | 188 | 0.0 | 0.0 | 0.00 | 0.00 | 0.00 | 64 | 1016.4 |
| 20260504044824 | 18 | 180 | 0.0 | 0.0 | 0.00 | 0.00 | 0.00 | 63 | 1016.6 |
| 20260504044321 | 18 | 196 | 0.0 | 0.0 | 0.00 | 0.00 | 0.00 | 63 | 1016.6 |
| 20260504043818 | 18 | 192 | 0.0 | 0.0 | 0.00 | 0.00 | 0.00 | 63 | 1016.5 |
| 20260504043315 | 18 | 183 | 0.0 | 0.0 | 0.00 | 0.00 | 0.00 | 63 | 1016.6 |
| 20260504042813 | 18 | 188 | 0.0 | 0.0 | 0.00 | 0.00 | 0.00 | 62 | 1016.6 |
| 20260504042309 | 18 | 190 | 0.0 | 0.0 | 0.00 | 0.00 | 0.00 | 62 | 1016.5 |
| 20260504041805 | 18 | 186 | 0.0 | 0.0 | 0.00 | 0.00 | 0.00 | 62 | 1016.4 |
| 20260504041301 | 18 | 188 | 0.0 | 0.0 | 0.00 | 0.00 | 0.00 | 62 | 1016.6 |
| 20260504040758 | 18 | 179 | 0.0 | 0.0 | 0.00 | 0.00 | 0.00 | 62 | 1016.4 |
| 20260504040255 | 18 | 192 | 0.0 | 0.0 | 0.00 | 0.00 | 0.00 | 62 | 1016.6 |
| 20260504035751 | 18 | 184 | 0.0 | 0.0 | 0.00 | 0.00 | 0.00 | 61 | 1016.4 |
| 20260504035248 | 19 | 188 | 0.0 | 0.0 | 0.00 | 0.00 | 0.00 | 60 | 1016.5 |
| 20260504034746 | 19 | 183 | 0.0 | 0.0 | 0.00 | 0.00 | 0.00 | 60 | 1016.5 |
| 20260504034243 | 19 | 194 | 0.0 | 0.0 | 0.00 | 0.00 | 0.00 | 59 | 1016.5 |
| 20260504033740 | 19 | 198 | 0.0 | 0.0 | 0.00 | 0.00 | 0.00 | 58 | 1016.4 |
| 20260504033238 | 20 | 194 | 0.0 | 0.0 | 0.00 | 0.00 | 0.00 | 58 | 1016.6 |
| 20260504032735 | 20 | 194 | 0.0 | 0.0 | 0.00 | 0.00 | 0.00 | 57 | 1016.5 |
| 20260504032232 | 20 | 183 | 0.0 | 0.0 | 0.00 | 0.00 | 0.00 | 57 | 1016.3 |
| 20260504031728 | 20 | 184 | 0.0 | 0.0 | 0.00 | 0.00 | 0.00 | 56 | 1016.3 |
| 20260504031226 | 20 | 195 | 0.0 | 0.0 | 0.00 | 0.00 | 0.00 | 56 | 1016.1 |
| 20260504030721 | 20 | 197 | 0.0 | 0.0 | 0.00 | 0.00 | 0.00 | 55 | 1016.4 |
| 20260504030219 | 20 | 200 | 0.0 | 0.0 | 0.00 | 0.00 | 0.00 | 55 | 1016.1 |
| 20260504025715 | 20 | 194 | 0.0 | 0.0 | 0.00 | 0.00 | 0.00 | 54 | 1016.1 |
| 20260504025212 | 20 | 180 | 0.0 | 0.0 | 0.00 | 0.00 | 0.00 | 54 | 1016.4 |
| 20260504024709 | 20 | 194 | 0.0 | 0.0 | 0.00 | 0.00 | 0.00 | 54 | 1016.0 |
| 20260504024206 | 20 | 200 | 0.0 | 0.0 | 0.00 | 0.00 | 0.00 | 53 | 1016.1 |
| 20260504023703 | 21 | 196 | 0.0 | 0.0 | 0.00 | 0.00 | 0.00 | 53 | 1016.0 |
| 20260504023158 | 21 | 191 | 0.0 | 0.0 | 0.00 | 0.00 | 0.00 | 51 | 1016.0 |
| 20260504022655 | 21 | 201 | 0.0 | 0.0 | 0.00 | 0.00 | 0.00 | 50 | 1016.4 |
| 20260504022150 | 21 | 187 | 0.0 | 0.0 | 0.00 | 0.00 | 0.00 | 51 | 1016.4 |
| 20260504021649 | 21 | 187 | 0.0 | 0.0 | 0.00 | 0.00 | 0.00 | 50 | 1016.1 |
| 20260504021145 | 21 | 193 | 0.0 | 0.0 | 0.00 | 0.00 | 0.00 | 49 | 1016.1 |
| 20260504020642 | 22 | 187 | 0.0 | 0.0 | 0.00 | 0.00 | 0.00 | 49 | 1016.3 |
| 20260504020138 | 22 | 195 | 0.0 | 0.0 | 0.00 | 0.00 | 0.00 | 48 | 1016.0 |
| 20260504015635 | 22 | 199 | 0.0 | 0.0 | 0.00 | 0.00 | 0.00 | 49 | 1015.7 |
| 20260504015131 | 22 | 198 | 0.0 | 0.0 | 0.00 | 0.00 | 0.00 | 48 | 1016.0 |
| 20260504014627 | 22 | 193 | 0.0 | 0.0 | 0.00 | 0.00 | 0.00 | 48 | 1015.9 |
| 20260504014124 | 22 | 195 | 0.0 | 0.0 | 0.00 | 0.00 | 0.00 | 49 | 1015.8 |
| 20260504013622 | 22 | 199 | 0.0 | 0.0 | 0.00 | 0.00 | 0.00 | 48 | 1016.0 |
| 20260504013119 | 22 | 205 | 0.0 | 0.0 | 0.00 | 0.00 | 0.00 | 46 | 1015.9 |
| 20260504012616 | 22 | 192 | 0.0 | 0.0 | 0.00 | 0.00 | 0.00 | 47 | 1015.8 |
| 20260504012114 | 23 | 198 | 0.0 | 0.0 | 0.00 | 0.00 | 0.00 | 46 | 1015.8 |
| 20260504011611 | 23 | 192 | 0.0 | 0.0 | 0.00 | 0.00 | 0.00 | 45 | 1015.7 |
| 20260504011107 | 23 | 199 | 0.0 | 0.0 | 0.00 | 0.00 | 0.00 | 44 | 1015.8 |
| 20260504010603 | 23 | 201 | 0.0 | 0.0 | 0.00 | 0.00 | 0.00 | 44 | 1016.0 |
| 20260504010059 | 23 | 195 | 0.0 | 0.0 | 0.00 | 0.00 | 0.00 | 45 | 1015.8 |
| 20260504005555 | 23 | 194 | 0.0 | 0.0 | 0.00 | 0.00 | 0.00 | 44 | 1015.7 |
| 20260504005053 | 23 | 190 | 0.0 | 0.0 | 0.00 | 0.00 | 0.00 | 44 | 1015.6 |
| 20260504004551 | 23 | 190 | 0.0 | 0.0 | 0.00 | 0.00 | 0.00 | 43 | 1015.6 |
| 20260504004048 | 24 | 196 | 0.0 | 0.0 | 0.00 | 0.00 | 0.00 | 42 | 1015.7 |
| 20260504003543 | 24 | 201 | 0.0 | 0.0 | 0.00 | 0.00 | 0.00 | 40 | 1015.9 |
| 20260504003041 | 24 | 179 | 0.0 | 0.0 | 0.00 | 0.00 | 0.00 | 40 | 1015.7 |
| 20260504002537 | 24 | 225 | 0.0 | 0.0 | 0.00 | 0.00 | 0.00 | 42 | 1015.8 |
| 20260504002035 | 24 | 215 | 0.0 | 0.0 | 0.00 | 0.00 | 0.00 | 41 | 1015.8 |
| 20260504001533 | 25 | 218 | 0.0 | 0.0 | 0.00 | 0.00 | 0.00 | 41 | 1015.8 |
| 20260504001028 | 25 | 184 | 0.0 | 0.0 | 0.00 | 0.00 | 0.00 | 41 | 1015.8 |
| 20260504000526 | 25 | 195 | 0.0 | 0.0 | 0.00 | 0.00 | 0.00 | 40 | 1015.8 |
| 20260504000023 | 25 | 186 | 0.0 | 0.0 | 0.00 | 0.00 | 0.00 | 40 | 1016.0 |
| 20260503235521 | 25 | 160 | 0.0 | 0.0 | 0.00 | 0.00 | 0.00 | 40 | 1015.9 |
| 20260503235018 | 25 | 196 | 0.0 | 0.0 | 0.00 | 0.00 | 0.00 | 41 | 1016.0 |
| 20260503234516 | 25 | 186 | 0.0 | 0.0 | 0.00 | 0.00 | 0.00 | 39 | 1015.9 |
| 20260503234014 | 25 | 180 | 0.0 | 0.0 | 0.00 | 0.00 | 0.00 | 38 | 1016.1 |
| 20260503233510 | 25 | 190 | 0.0 | 0.0 | 0.00 | 0.00 | 0.00 | 39 | 1016.0 |
| 20260503233006 | 25 | 215 | 0.0 | 0.0 | 0.00 | 0.00 | 0.00 | 40 | 1016.1 |
| 20260503232503 | 25 | 224 | 0.0 | 0.0 | 0.00 | 0.00 | 0.00 | 39 | 1016.4 |
| 20260503232001 | 25 | 176 | 0.0 | 0.0 | 0.00 | 0.00 | 0.00 | 38 | 1016.0 |
| 20260503231458 | 26 | 198 | 0.0 | 0.0 | 0.00 | 0.00 | 0.00 | 39 | 1016.0 |
| 20260503230955 | 26 | 171 | 0.0 | 0.0 | 0.00 | 0.00 | 0.00 | 37 | 1016.1 |
| 20260503230451 | 26 | 190 | 0.0 | 0.0 | 0.00 | 0.00 | 0.00 | 38 | 1016.1 |
| 20260503225949 | 26 | 182 | 0.0 | 0.0 | 0.00 | 0.00 | 0.00 | 38 | 1016.1 |
| 20260503225445 | 26 | 178 | 0.0 | 0.0 | 0.00 | 0.00 | 0.00 | 39 | 1016.3 |
| 20260503224941 | 26 | 206 | 0.0 | 1.6 | 0.00 | 0.00 | 0.00 | 37 | 1016.4 |
| 20260503224438 | 26 | 207 | 0.0 | 0.0 | 0.00 | 0.00 | 0.00 | 38 | 1016.3 |
| 20260503223936 | 26 | 183 | 0.0 | 0.0 | 0.00 | 0.00 | 0.00 | 38 | 1016.3 |
| 20260503223434 | 26 | 188 | 0.0 | 0.0 | 0.00 | 0.00 | 0.00 | 36 | 1016.4 |
| 20260503222929 | 26 | 173 | 1.6 | 1.6 | 0.00 | 0.00 | 0.00 | 38 | 1016.5 |
| 20260503222428 | 26 | 189 | 0.0 | 0.0 | 0.00 | 0.00 | 0.00 | 39 | 1016.4 |
| 20260503221926 | 26 | 202 | 0.0 | 0.0 | 0.00 | 0.00 | 0.00 | 40 | 1016.6 |
| 20260503221424 | 26 | 185 | 1.6 | 1.6 | 0.00 | 0.00 | 0.00 | 37 | 1016.6 |
| 20260503220920 | 26 | 218 | 0.0 | 1.6 | 0.00 | 0.00 | 0.00 | 37 | 1016.8 |
| 20260503220416 | 26 | 173 | 1.6 | 3.2 | 0.00 | 0.00 | 0.00 | 36 | 1016.7 |
| 20260503215914 | 26 | 204 | 1.6 | 1.6 | 0.00 | 0.00 | 0.00 | 35 | 1016.7 |
| 20260503215410 | 26 | 235 | 0.0 | 0.0 | 0.00 | 0.00 | 0.00 | 40 | 1016.8 |
| 20260503214908 | 26 | 217 | 0.0 | 0.0 | 0.00 | 0.00 | 0.00 | 36 | 1016.7 |
| 20260503214405 | 26 | 243 | 0.0 | 0.0 | 0.00 | 0.00 | 0.00 | 37 | 1016.7 |
| 20260503213903 | 26 | 185 | 0.0 | 1.6 | 0.00 | 0.00 | 0.00 | 36 | 1017.0 |
| 20260503213401 | 27 | 230 | 0.0 | 1.6 | 0.00 | 0.00 | 0.00 | 38 | 1017.1 |
| 20260503212856 | 27 | 198 | 0.0 | 0.0 | 0.00 | 0.00 | 0.00 | 38 | 1017.2 |
| 20260503212355 | 27 | 172 | 0.0 | 0.0 | 0.00 | 0.00 | 0.00 | 35 | 1017.3 |
| 20260503211851 | 27 | 178 | 0.0 | 0.0 | 0.00 | 0.00 | 0.00 | 36 | 1017.2 |
| 20260503211348 | 27 | 191 | 0.0 | 0.0 | 0.00 | 0.00 | 0.00 | 36 | 1017.1 |
| 20260503210843 | 27 | 172 | 0.0 | 1.6 | 0.00 | 0.00 | 0.00 | 38 | 1017.5 |
| 20260503210341 | 27 | 166 | 1.6 | 1.6 | 0.00 | 0.00 | 0.00 | 36 | 1017.4 |
| 20260503205836 | 27 | 177 | 0.0 | 0.0 | 0.00 | 0.00 | 0.00 | 37 | 1017.7 |
| 20260503205333 | 26 | 200 | 0.0 | 0.0 | 0.00 | 0.00 | 0.00 | 37 | 1017.6 |
| 20260503204829 | 26 | 187 | 0.0 | 0.0 | 0.00 | 0.00 | 0.00 | 36 | 1017.8 |
| 20260503204327 | 26 | 208 | 0.0 | 0.0 | 0.00 | 0.00 | 0.00 | 36 | 1017.8 |
| 20260503203824 | 27 | 174 | 0.0 | 0.0 | 0.00 | 0.00 | 0.00 | 38 | 1017.9 |
| 20260503203321 | 27 | 196 | 0.0 | 0.0 | 0.00 | 0.00 | 0.00 | 35 | 1018.0 |
| 20260503202818 | 26 | 186 | 0.0 | 0.0 | 0.00 | 0.00 | 0.00 | 36 | 1018.2 |
| 20260503202316 | 26 | 191 | 0.0 | 0.0 | 0.00 | 0.00 | 0.00 | 35 | 1018.3 |
| 20260503201814 | 26 | 179 | 0.0 | 1.6 | 0.00 | 0.00 | 0.00 | 36 | 1018.3 |
| 20260503201311 | 27 | 181 | 1.6 | 3.2 | 0.00 | 0.00 | 0.00 | 35 | 1018.4 |
| 20260503200808 | 27 | 201 | 1.6 | 3.2 | 0.00 | 0.00 | 0.00 | 33 | 1018.6 |
| 20260503200304 | 27 | 191 | 0.0 | 1.6 | 0.00 | 0.00 | 0.00 | 31 | 1018.5 |
| 20260503195802 | 27 | 186 | 0.0 | 0.0 | 0.00 | 0.00 | 0.00 | 34 | 1018.6 |
| 20260503195258 | 27 | 191 | 0.0 | 1.6 | 0.00 | 0.00 | 0.00 | 34 | 1018.7 |
| 20260503194755 | 26 | 197 | 0.0 | 0.0 | 0.00 | 0.00 | 0.00 | 34 | 1018.8 |
| 20260503194251 | 27 | 168 | 4.8 | 4.8 | 0.00 | 0.00 | 0.00 | 35 | 1018.8 |
| 20260503193747 | 27 | 239 | 0.0 | 0.0 | 0.00 | 0.00 | 0.00 | 38 | 1018.8 |
| 20260503193243 | 27 | 188 | 0.0 | 0.0 | 0.00 | 0.00 | 0.00 | 35 | 1019.1 |
| 20260503192739 | 27 | 284 | 0.0 | 0.0 | 0.00 | 0.00 | 0.00 | 37 | 1018.9 |
| 20260503192234 | 26 | 203 | 0.0 | 0.0 | 0.00 | 0.00 | 0.00 | 37 | 1019.1 |
| 20260503191731 | 26 | 188 | 0.0 | 0.0 | 0.00 | 0.00 | 0.00 | 40 | 1019.2 |
| 20260503191228 | 26 | 203 | 0.0 | 0.0 | 0.00 | 0.00 | 0.00 | 39 | 1019.2 |
| 20260503190725 | 26 | 176 | 0.0 | 0.0 | 0.00 | 0.00 | 0.00 | 40 | 1019.4 |
| 20260503190221 | 26 | 218 | 0.0 | 0.0 | 0.00 | 0.00 | 0.00 | 36 | 1019.5 |
| 20260503185719 | 26 | 189 | 0.0 | 0.0 | 0.00 | 0.00 | 0.00 | 39 | 1019.4 |
| 20260503185214 | 26 | 174 | 0.0 | 1.6 | 0.00 | 0.00 | 0.00 | 39 | 1019.5 |
| 20260503184709 | 26 | 209 | 0.0 | 0.0 | 0.00 | 0.00 | 0.00 | 42 | 1019.6 |
| 20260503184206 | 26 | 198 | 0.0 | 0.0 | 0.00 | 0.00 | 0.00 | 41 | 1019.6 |
| 20260503183702 | 26 | 191 | 1.6 | 1.6 | 0.00 | 0.00 | 0.00 | 37 | 1019.7 |
| 20260503183159 | 26 | 330 | 1.6 | 1.6 | 0.00 | 0.00 | 0.00 | 40 | 1019.7 |
| 20260503182657 | 26 | 186 | 0.0 | 0.0 | 0.00 | 0.00 | 0.00 | 41 | 1020.0 |
| 20260503182155 | 26 | 166 | 3.2 | 3.2 | 0.00 | 0.00 | 0.00 | 38 | 1020.0 |
| 20260503181652 | 26 | 226 | 0.0 | 1.6 | 0.00 | 0.00 | 0.00 | 43 | 1020.3 |
| 20260503181149 | 26 | 202 | 0.0 | 0.0 | 0.00 | 0.00 | 0.00 | 40 | 1020.2 |
| 20260503180646 | 26 | 175 | 0.0 | 0.0 | 0.00 | 0.00 | 0.00 | 43 | 1020.3 |
| 20260503180144 | 26 | 173 | 1.6 | 3.2 | 0.00 | 0.00 | 0.00 | 42 | 1020.3 |
| 20260503175640 | 26 | 209 | 0.0 | 0.0 | 0.00 | 0.00 | 0.00 | 42 | 1020.5 |
| 20260503175138 | 25 | 167 | 1.6 | 1.6 | 0.00 | 0.00 | 0.00 | 43 | 1020.6 |
| 20260503174634 | 25 | 192 | 0.0 | 0.0 | 0.00 | 0.00 | 0.00 | 43 | 1020.7 |
| 20260503174131 | 25 | 207 | 0.0 | 0.0 | 0.00 | 0.00 | 0.00 | 43 | 1020.7 |
| 20260503173626 | 25 | 166 | 1.6 | 3.2 | 0.00 | 0.00 | 0.00 | 43 | 1020.9 |
| 20260503173123 | 25 | 169 | 1.6 | 3.2 | 0.00 | 0.00 | 0.00 | 43 | 1021.0 |
| 20260503172620 | 25 | 241 | 1.6 | 1.6 | 0.00 | 0.00 | 0.00 | 47 | 1021.1 |
| 20260503172118 | 25 | 201 | 1.6 | 1.6 | 0.00 | 0.00 | 0.00 | 46 | 1021.3 |
| 20260503171614 | 25 | 205 | 0.0 | 0.0 | 0.00 | 0.00 | 0.00 | 43 | 1021.1 |
| 20260503171111 | 25 | 186 | 0.0 | 1.6 | 0.00 | 0.00 | 0.00 | 46 | 1021.1 |
| 20260503170608 | 25 | 194 | 0.0 | 0.0 | 0.00 | 0.00 | 0.00 | 46 | 1021.2 |
| 20260503170105 | 25 | 186 | 1.6 | 1.6 | 0.00 | 0.00 | 0.00 | 48 | 1021.4 |
| 20260503151000 | 22 | 215 | 0.0 | 0.0 | 0.00 | 0.00 | 0.00 | 52 | 1021.8 |
| 20260503150456 | 21 | 199 | 0.0 | 0.0 | 0.00 | 0.00 | 0.00 | 55 | 1021.7 |
| 20260503131343 | 12 | 177 | 0.0 | 0.0 | 0.00 | 0.00 | 0.00 | 95 | 1021.6 |
| 20260503130841 | 12 | 177 | 0.0 | 0.0 | 0.00 | 0.00 | 0.00 | 95 | 1021.4 |
| 20260503130338 | 11 | 177 | 0.0 | 0.0 | 0.00 | 0.00 | 0.00 | 95 | 1021.4 |
| 20260503110732 | 10 | 179 | 0.0 | 0.0 | 0.00 | 0.00 | 0.00 | 93 | 1020.7 |
| 20260503110229 | 10 | 179 | 0.0 | 0.0 | 0.00 | 0.00 | 0.00 | 93 | 1020.6 |
| 20260503100155 | 10 | 179 | 0.0 | 0.0 | 0.00 | 0.00 | 0.00 | 93 | 1020.6 |